Regional Weather Roundup
Issued by NWS

Home | Current Version | Previous Version | Text Only | Print | Product List | Glossary On
Versions: 1 2 3 4 5 6 7 8 9 10 11 12 13 14 15 16 17 18 19 20 21 22 23 24 25 26 27 28 29 30 31 32 33 34 35 36 37 38 39 40 41 42 43 44 45 46 47 48 49 50
000
ASUS43 KBIS 070520
RWRND

NORTH DAKOTA REGIONAL WEATHER ROUNDUP
NATIONAL WEATHER SERVICE BISMARCK ND
1100 PM CST FRI MAR 06 2015

NOTE: "FAIR" INDICATES FEW OR NO CLOUDS BELOW 12,000 FEET WITH NO
SIGNIFICANT WEATHER AND/OR OBSTRUCTIONS TO VISIBILITY.


NDZ001>003-009>011-017-070600-
NORTHWEST NORTH DAKOTA

CITY           SKY/WX    TMP DP  RH WIND       PRES   REMARKS
WILLISTON      CLOUDY    37  30  75 NW20G26   30.10R
MINOT          MOCLDY    36  30  79 W22G31    29.98R
MINOT AFB      CLOUDY    35  35  99 NW21      29.98R
$$

NDZ018>021-031>035-040>046-070600-
SOUTHWEST NORTH DAKOTA

CITY           SKY/WX    TMP DP  RH WIND       PRES   REMARKS
BISMARCK       CLEAR     40  28  62 NW17G29   30.03R
DICKINSON      CLEAR     35  24  64 NW13      30.05R
GARRISON         N/A     37  31  78 NW23      30.00R
HETTINGER ARPT PTCLDY    30  22  72 W6        30.09S
$$

NDZ004>008-012>016-024-026-027-054-070600-
NORTHEAST NORTH DAKOTA

CITY           SKY/WX    TMP DP  RH WIND       PRES   REMARKS
GRAND FORKS    CLOUDY    37  27  67 NW14      29.84S
GRND FRKS AFB  CLOUDY    38  29  71 NW13G21   29.85R
DEVILS LAKE    CLEAR     32  28  86 NW13      29.92R
$$

NDZ022-023-025-028>030-036>039-047>053-070600-
SOUTHEAST NORTH DAKOTA

CITY           SKY/WX    TMP DP  RH WIND       PRES   REMARKS
FARGO          CLOUDY    36  25  64 SW14      29.88F
JAMESTOWN      MOCLDY    37  29  72 W17       29.91R
$$




USA.gov is the U.S. government's official web portal to all federal, state and local government web resources and services.